Weather observations for the past three days for
Sault Ste. Marie
Imperial (Metric)
Date Time (edt) Wind (mph) Vis. (mi.) Weather Sky Cond. Temperature (ºF) Relative Humidity Wind Chill (°F) Heat Index (°F) Pressure Precipitation (in)
Air Dwpt 6 hour altimeter (in) sea level (mb) 1 hr 3 hr 6 hr
Max. Min.
23 07:55 Vrbl 3 10.00 Overcast SCT085 OVC110 63 60.1 64 62.1 90% 30.02 1016.1 0.02
23 06:55 NE 7 9.00 Light Rain OVC100 63 59 87% 30.01 1015.8 0.02
23 05:55 E 5 10.00 Overcast OVC110 64 57.9 81% 30.01 1015.6
23 04:55 NE 5 10.00 Mostly Cloudy BKN100 64 57 78% 30 1015.3
23 03:55 NE 3 10.00 Fair CLR 64 57.9 81% 29.99 1015.2
23 02:55 Calm 10.00 Partly Cloudy SCT120 64 59 84% 29.99 1015.3
23 01:55 NE 3 10.00 Fair CLR 64 59 75 63 84% 30 1015.2
23 00:55 Calm 10.00 Fair CLR 63 57 81% 30 1015.5
22 23:55 Calm 10.00 Fair CLR 64 55.9 75% 30 1015.5
22 22:55 S 5 10.00 Fair CLR 66.9 57 71% 30 1015.4
22 21:55 Calm 10.00 Fair CLR 66.9 55 66% 29.99 1015.3
22 20:55 Calm 10.00 Fair CLR 73 52 48% 29.98 1014.8
22 19:55 E 3 10.00 Fair CLR 75 52 80.1 75 45% 78 29.97 1014.6
22 18:55 Vrbl 3 10.00 Fair CLR 77 52 42% 78 29.96 1014.4
22 17:55 Vrbl 3 10.00 Fair CLR 78.1 53.1 42% 79 29.97 1014.7
22 16:55 NW 8 10.00 Fair CLR 79 54 42% 79 29.98 1015.0
22 15:55 NW 8 10.00 Fair CLR 79 53.1 41% 79 30 1015.5
22 14:55 Vrbl 5 10.00 Fair CLR 75.9 48 37% 78 30.01 1015.9
22 13:55 NW 6 10.00 Fair CLR 77 48.9 77 59 37% 78 30.02 1016.3
22 12:55 Vrbl 6 10.00 Fair CLR 75 48 39% 77 30.04 1016.9
22 11:55 Calm 10.00 Fair CLR 73.9 52 46% 30.05 1017.2
22 10:55 Vrbl 3 10.00 Fair CLR 71.1 50 47% 30.06 1017.5
22 09:55 Calm 10.00 Fair CLR 68 54 61% 30.06 1017.7
22 08:55 Calm 10.00 Fair CLR 64 55.9 75% 30.06 1017.8
22 07:55 Calm 10.00 Fair CLR 59 55 59 50 87% 30.07 1017.9
22 06:55 Calm 10.00 Fair CLR 53.1 52 96% 30.06 1017.8
22 05:55 Calm 10.00 Fair CLR 51.1 48.9 92% 30.06 1017.6
22 04:55 Calm 10.00 Fair CLR 52 50 93% 30.07 1018.1
22 03:55 Calm 10.00 Fair CLR 52 50 93% 30.08 1018.4
22 02:55 NW 3 10.00 Fair CLR 54 52 93% 30.1 1018.9
22 01:55 Calm 10.00 Fair CLR 55 51.1 69.1 54 87% 30.11 1019.2
22 00:55 Calm 10.00 Fair CLR 55 52 90% 30.11 1019.2
21 23:55 Calm 10.00 Fair CLR 55.9 51.1 84% 30.11 1019.3
21 22:55 Calm 10.00 Fair CLR 59 52 78% 30.11 1019.3
21 21:55 NW 5 10.00 Fair CLR 62.1 52 70% 30.11 1019.4
21 20:55 NW 8 10.00 Fair CLR 64.9 52 63% 30.11 1019.3
21 19:55 NW 8 10.00 Fair CLR 69.1 52 75 69.1 55% 30.11 1019.4
21 18:55 NW 8 10.00 Fair CLR 71.1 51.1 49% 30.11 1019.4
21 17:55 NW 10 10.00 Fair CLR 72 51.1 48% 30.13 1019.9
21 16:55 NW 10 9.00 Fair CLR 73 52 48% 30.14 1020.2
21 15:55 NW 8 G 16 10.00 Fair CLR 75 55 50% 78 30.14 1020.2
21 14:55 W 8 10.00 Fair CLR 75 54 48% 78 30.15 1020.5
21 13:55 W 7 10.00 Fair CLR 73.9 52 75 61 46% 30.15 1020.5
21 12:55 Vrbl 6 10.00 Fair CLR 72 51.1 48% 30.16 1020.9
21 11:55 E 3 10.00 Fair CLR 71.1 48.9 46% 30.16 1021.2
21 10:55 Vrbl 5 10.00 Fair CLR 70 50 49% 30.17 1021.3
21 09:55 Vrbl 3 10.00 Fair CLR 66 50 56% 30.18 1021.6
21 08:55 E 5 10.00 Fair CLR 63 50 63% 30.18 1021.7
21 07:55 Vrbl 5 10.00 Fair CLR 61 50 63 57 67% 30.17 1021.3
21 06:55 Calm 10.00 Fair CLR 57 48.9 74% 30.15 1020.5
21 05:55 NE 5 10.00 Fair CLR 57.9 48 70% 30.13 1019.9
21 04:55 NE 5 10.00 Fair CLR 60.1 48 65% 30.11 1019.2
21 03:55 NE 5 10.00 Fair CLR 61 48 63% 30.1 1019.0
21 02:55 NE 3 10.00 Fair CLR 62.1 50 65% 30.1 1018.8
21 01:55 NE 5 10.00 Fair CLR 62.1 55.9 72 57 80% 30.09 1018.6
21 00:55 Calm 10.00 Fair CLR 60.1 57 90% 30.09 1018.5
20 23:55 Calm 10.00 Fair CLR 62.1 57 84% 30.08 1018.2
20 22:55 W 5 10.00 Fair CLR 64.9 57 76% 30.07 1018.0
20 21:55 NW 6 10.00 Fair CLR 66 57.9 75% 30.07 1017.8
20 20:55 NW 10 10.00 Fair CLR 66.9 62.1 84% 30.05 1017.3
20 19:55 NW 10 10.00 Fair CLR 73 63 78.1 73 71% 30.03 1016.6
20 18:55 NW 6 10.00 Fair CLR 75 63 66% 77 30.03 1016.5
20 17:55 W 8 10.00 Fair CLR 77 63 62% 79 30.02 1016.2
20 16:55 NW 9 10.00 A Few Clouds FEW085 77 62.1 60% 79 30.02 1016.1
20 15:55 W 8 10.00 Mostly Cloudy BKN080 75 61 62% 77 30.03 1016.4
20 14:55 W 8 10.00 Mostly Cloudy FEW050 BKN070 BKN085 75.9 62.1 62% 78 30.03 1016.5
20 13:55 Calm 10.00 Overcast OVC055 73.9 61 73.9 64.9 64% 30.03 1016.5
20 12:55 N 7 10.00 Overcast OVC060 73 61 66% 30.03 1016.5
20 11:55 NW 8 10.00 Fair CLR 73 62.1 69% 30.02 1016.3
20 10:55 Calm 10.00 Partly Cloudy SCT120 71.1 63 76% 30.02 1016.1
20 09:55 Calm 10.00 Partly Cloudy SCT110 69.1 63 81% 30.01 1015.7
20 08:55 Calm 10.00 A Few Clouds FEW120 66.9 63 87% 30.01 1016.0
Date Time (edt) Wind (mph) Vis. (mi.) Weather Sky Cond. Air Dwpt Max. Min. Relative Humidity Wind Chill (°F) Heat Index (°F) altimeter (in) sea level (mb) 1 hr 3 hr 6 hr
6 hour
Temperature (ºF) Pressure Precipitation (in)